DELTA 1 DEB, 7179

Orbit data source: Space-Track

DELTA 1 DEB, 7179 is space debris in SSO originally from a launch on Tue, 06 Nov 1973 UTC launched from the Air Force Western Test Range (AFWTR). Debris objects in space refer to the collection of defunct objects orbiting the Earth. Examples of debris include non-operational satellites, rocket bodies, and fragments generated from explosions, collisions, or faulty payload assembly.

Loading next visibility...
Identifier
7179, 1973-086EQ
Orbit
SSO
Country
Flag of USUS
Related business
Manufacturer
Unknown
Mission
Spacecraft
Bus & Motor
Unknown
Mass
Unknown
Launch date (UTC)
1973-11-06 (52 years ago)
Launch vehicle
Unknown
Launch site
Air Force Western Test Range (AFWTR)
Object type
Payload
Rocket body
Debris
Shape & HBR
Unknown shape, 0.1 m
Radar Cross Section
Small (<0.1 m²)

Expand to show TLE details & history
Last TLE update: 13 hours ago

TLE from 13 hours ago
0 DELTA 1 DEB
1 07179U 73086EQ  26033.52479984  .00035218  00000-0  17653-1 0  9992
2 07179 102.5511   8.7615 0029647  41.3085  75.0462 14.16207095470984
Epoch: 2026-02-02T12:35Z
TLE epoch observation values (Epoch: 2026-02-02T12:35:42.706Z)
Latitude
60.80886°
Longitude
-109.53262°
Altitude
842.938 km
Speed
7.44 km/s
True Right ascension
14h 08m 27s
True Declination
60° 39' 50"
Sunlit
Object was in daylight at epoch
Visualization orbit readout
Latitude
Unknown
Longitude
Unknown
Altitude
Unknown
Speed
Unknown
Apparent Right ascension
Unknown
Apparent Declination
Unknown
Sunlit
N/A
Visualization observer readout
Local Sidereal Time
03:36:05
Azimuth
Unknown
Elevation
Unknown
Doppler factor
Unknown
Orbital elements
Apogee altitude
856.981 km
Perigee altitude
814.208 km
Semi-major axis
7,213.732 km
Eccentricity
0.00296
Inclination
102.5511°
RAAN
8.7615°
Arg. of periapsis
41.3085°
True anomaly
75.37474°
Mean anomaly
75.0462°
Eccentric anomaly
75.21044°
Mean motion
3.54245 °/min
Orbital period
101.62 mins
BSTAR
0.017653
Loading maneuver chart data...
Computing Atmospheric mass density...
Loading historical data...
Loading historical data...
Loading historical data...
Loading historical data...
Loading historical data...
Loading historical data...
Loading historical data...

Documentation

Showing up to 5 results
|